Weather reports worldwide

Advertisment
Jerez de los Caballeros, Spain (8337): temperature & dewpoint: 19.08.2019 08:00:00 - 25.08.2019 08:00:00 (CEST)Jerez de los Caballeros, Spain (8337): wind speed & gusts: 19.08.2019 08:00:00 - 25.08.2019 08:00:00 (CEST)Jerez de los Caballeros, Spain (8337): wind direction: 19.08.2019 08:00:00 - 25.08.2019 08:00:00 (CEST)Jerez de los Caballeros, Spain (8337): reduced air pressure: 19.08.2019 08:00:00 - 25.08.2019 08:00:00 (CEST)Jerez de los Caballeros, Spain (8337): visibility: 19.08.2019 08:00:00 - 25.08.2019 08:00:00 (CEST)Jerez de los Caballeros, Spain (8337): sunshine duration: 19.08.2019 08:00:00 - 25.08.2019 08:00:00 (CEST)Jerez de los Caballeros, Spain (8337): precipitation: 19.08.2019 08:00:00 - 25.08.2019 08:00:00 (CEST)
Date & Time tt [°C] td [°C] ff [km/h] ff [kn] fx [km/h] fx [kn] dd ppp [hPa] vv [km] sd [min] rr [mm]
25.08.2019 08:00:00 - - - - - - - - - - -
25.08.2019 07:00:00 20,3 8,9 10 5 15 8 W 1015,4 20 0 0,0
25.08.2019 06:00:00 21,2 9,8 8 5 14 8 WSW 1015,0 20 0 0,0
25.08.2019 05:00:00 22,4 9,6 5 3 17 9 WSW 1014,6 20 0 0,0
25.08.2019 04:00:00 23,1 9,4 12 7 18 10 W 1014,7 20 0 0,0
25.08.2019 03:00:00 24,0 9,6 10 6 17 9 W 1014,7 20 0 0,0
25.08.2019 02:00:00 25,7 9,9 5 3 21 12 SW 1014,8 20 0 -
25.08.2019 01:00:00 27,0 9,3 14 8 28 15 WSW 1014,5 20 0 0,0
25.08.2019 00:00:00 28,4 9,7 19 10 29 15 WSW 1014,4 20 0 0,0
24.08.2019 23:00:00 29,6 10,2 14 8 31 17 SW 1013,7 20 0 0,0
24.08.2019 22:00:00 31,1 7,6 14 8 24 13 WSW 1012,8 20 0 0,0
24.08.2019 21:00:00 33,7 6,8 14 7 23 12 W 1012,0 20 9 0,0
24.08.2019 20:00:00 35,4 8,3 11 6 24 13 NW 1011,8 20 32 -
24.08.2019 19:00:00 35,9 8,7 10 5 29 16 NW 1012,1 20 39 0,0
24.08.2019 18:00:00 36,6 7,6 14 7 24 13 W 1012,3 20 36 0,0
24.08.2019 17:00:00 35,5 7,6 14 8 33 18 NNE 1012,8 20 50 0,0
24.08.2019 16:00:00 37,5 6,5 13 7 26 14 SSW - 20 60 0,0
24.08.2019 15:00:00 35,5 6,7 7 4 16 9 N - 20 60 0,0
24.08.2019 14:00:00 34,0 9,3 6 4 21 12 WSW - 20 60 -
24.08.2019 13:00:00 32,4 9,8 13 7 23 12 WSW 1015,5 20 60 0,0
24.08.2019 12:00:00 30,2 9,7 11 6 18 10 SW 1016,0 20 60 0,0
24.08.2019 11:00:00 27,1 9,4 5 3 11 6 SW 1016,6 20 60 0,0
24.08.2019 10:00:00 23,5 10,9 5 3 9 5 SW 1016,9 20 60 0,0
24.08.2019 09:00:00 20,6 11,0 6 3 8 4 WSW 1016,9 20 53 0,0
24.08.2019 08:00:00 20,0 10,6 2 1 7 4 S 1016,3 20 0 -
24.08.2019 07:00:00 20,4 10,5 3 2 9 5 S 1016,2 20 0 0,0
24.08.2019 06:00:00 22,6 11,0 6 3 15 8 NNW 1015,7 20 0 0,0
24.08.2019 05:00:00 22,6 10,4 6 3 8 4 E 1015,7 1,3 0 0,0
24.08.2019 04:00:00 24,3 10,5 4 2 12 6 WSW 1015,5 20 0 0,0
24.08.2019 03:00:00 25,5 10,9 8 4 22 12 WNW 1015,4 20 0 0,0
24.08.2019 02:00:00 26,4 10,2 11 6 17 9 W 1015,3 20 0 -
24.08.2019 01:00:00 27,4 7,8 7 4 10 6 W 1015,1 20 0 0,0
24.08.2019 00:00:00 28,9 7,4 9 5 15 8 WSW 1014,7 20 0 0,0
23.08.2019 23:00:00 30,6 7,1 5 3 13 7 E 1014,1 20 0 0,0
23.08.2019 22:00:00 31,8 8,1 6 3 23 13 N 1013,3 20 0 0,0
23.08.2019 21:00:00 33,7 6,1 4 2 13 7 NE 1012,3 20 24 0,0
23.08.2019 20:00:00 35,1 5,5 9 5 27 14 ENE 1012,1 20 60 -
23.08.2019 19:00:00 35,9 6,1 14 7 29 16 ENE 1012,1 20 60 0,0
23.08.2019 18:00:00 35,7 5,9 10 5 27 15 N 1012,6 20 60 0,0
23.08.2019 17:00:00 35,8 7,0 14 8 29 16 E 1013,0 20 57 0,0
23.08.2019 16:00:00 35,4 7,4 23 12 41 22 ENE 1013,4 20 60 0,0
23.08.2019 15:00:00 34,6 7,6 22 12 41 22 ENE 1014,1 19 60 0,0
23.08.2019 14:00:00 33,9 7,8 21 12 37 20 ENE 1014,7 20 60 -
23.08.2019 13:00:00 32,9 8,4 10 5 27 15 E 1015,4 20 60 0,0
23.08.2019 12:00:00 31,0 10,4 6 3 21 11 ESE 1016,1 20 60 0,0
23.08.2019 11:00:00 28,9 11,0 6 3 15 8 E 1016,5 20 60 0,0
23.08.2019 10:00:00 25,6 13,2 5 3 9 5 E 1016,8 20 60 0,0
23.08.2019 09:00:00 22,4 13,5 4 2 10 5 E 1017,0 20 52 0,0
23.08.2019 08:00:00 20,2 13,7 8 4 11 6 E 1016,9 20 0 -
23.08.2019 07:00:00 21,8 13,9 9 5 13 7 ENE 1016,2 20 0 0,0
23.08.2019 06:00:00 21,6 13,5 3 2 8 4 WSW 1016,0 20 0 0,0
23.08.2019 05:00:00 23,2 13,7 6 3 8 5 E 1015,7 20 0 0,0
23.08.2019 04:00:00 24,2 13,8 2 1 9 5 NNW 1015,7 20 0 0,0
23.08.2019 03:00:00 24,5 13,4 2 1 12 6 W 1015,6 20 0 0,0
23.08.2019 02:00:00 25,2 13,4 10 5 21 12 SW 1015,7 20 0 -
23.08.2019 01:00:00 26,3 14,0 15 8 29 15 WSW 1015,5 20 0 0,0
23.08.2019 00:00:00 27,7 13,9 18 10 34 19 WSW 1015,3 20 0 0,0
22.08.2019 23:00:00 30,4 11,3 6 3 13 7 W 1014,6 20 0 0,0
22.08.2019 22:00:00 31,5 11,3 4 2 17 9 SSE 1013,7 20 0 0,0
22.08.2019 21:00:00 33,4 10,0 6 3 20 11 SE 1012,9 20 0 0,0
22.08.2019 20:00:00 34,4 8,3 16 9 27 14 E 1012,4 20 41 -
22.08.2019 19:00:00 34,8 7,7 14 8 26 14 ENE 1012,4 20 37 0,0
22.08.2019 18:00:00 36,0 7,1 8 5 37 20 NE 1012,4 20 58 0,0
22.08.2019 17:00:00 35,3 8,1 16 9 41 22 ENE 1013,0 8 54 0,0
22.08.2019 16:00:00 34,6 9,0 22 12 46 25 ENE 1013,4 12 47 0,0
22.08.2019 15:00:00 35,1 9,6 21 11 40 22 NE 1014,0 20 60 0,0
22.08.2019 14:00:00 33,5 11,9 20 11 36 19 E 1014,8 20 60 -
22.08.2019 13:00:00 31,8 11,6 14 8 26 14 E 1015,8 11 60 0,0
22.08.2019 12:00:00 29,6 10,2 9 5 16 8 E 1016,6 20 60 0,0
22.08.2019 11:00:00 26,4 9,3 3 2 10 5 NW 1017,3 20 60 0,0
22.08.2019 10:00:00 22,9 8,5 6 3 12 6 E 1017,6 16 60 0,0
22.08.2019 09:00:00 19,4 7,8 3 2 10 6 WSW 1018,0 20 53 0,0
22.08.2019 08:00:00 18,6 7,7 3 2 7 4 SW 1017,4 20 0 -
22.08.2019 07:00:00 18,8 7,3 2 1 9 5 SSE 1016,8 20 0 0,0
22.08.2019 06:00:00 21,4 7,3 6 3 11 6 ENE 1016,3 20 0 0,0
22.08.2019 05:00:00 20,3 5,9 6 3 10 6 E 1016,5 20 0 0,0
22.08.2019 04:00:00 21,9 8,8 5 3 10 5 WNW 1016,3 20 0 0,0
22.08.2019 03:00:00 24,0 8,4 6 3 12 7 WNW 1016,3 20 0 0,0
22.08.2019 02:00:00 24,8 7,4 8 4 17 9 W 1016,5 20 0 -
22.08.2019 01:00:00 25,8 7,4 7 4 19 10 W 1016,4 20 0 0,0
22.08.2019 00:00:00 27,3 5,0 3 2 22 12 SSW 1015,5 20 0 0,0
21.08.2019 23:00:00 29,8 1,3 18 10 26 14 N 1014,8 20 0 0,0
21.08.2019 22:00:00 30,3 4,1 17 9 24 13 N 1014,3 20 0 0,0
21.08.2019 21:00:00 31,5 6,5 12 6 19 10 NNW 1013,6 20 12 0,0
21.08.2019 20:00:00 32,4 7,3 14 8 22 12 N 1013,0 20 9 -
21.08.2019 19:00:00 33,0 7,7 14 7 24 13 N 1013,0 20 45 0,0
21.08.2019 18:00:00 33,6 8,3 10 6 29 15 N 1013,0 20 41 0,0
21.08.2019 17:00:00 35,0 7,9 12 7 27 15 WSW - 20 60 0,0
21.08.2019 16:00:00 34,1 8,0 5 3 29 15 SW - 20 60 0,0
21.08.2019 15:00:00 33,8 9,8 14 7 23 13 WSW - 20 60 0,0
21.08.2019 14:00:00 32,5 8,7 11 6 25 13 S - 20 60 -
21.08.2019 13:00:00 31,3 10,0 12 6 25 14 W 1015,4 18 60 0,0
21.08.2019 12:00:00 28,9 10,5 7 4 17 9 WSW 1016,3 20 60 0,0
21.08.2019 11:00:00 25,5 6,7 5 3 10 5 ENE 1016,6 20 60 0,0
21.08.2019 10:00:00 21,4 4,8 5 3 9 5 E 1017,4 20 60 0,0
21.08.2019 09:00:00 17,1 5,1 2 1 9 5 SW 1017,7 20 54 0,0
21.08.2019 08:00:00 15,6 5,0 2 1 9 5 ENE 1017,7 20 0 -
21.08.2019 07:00:00 15,6 4,6 7 4 11 6 E 1016,9 20 0 0,0
21.08.2019 06:00:00 17,9 3,8 6 4 14 7 E 1016,3 20 0 0,0
21.08.2019 05:00:00 18,7 3,8 5 3 9 5 E 1016,3 20 0 0,0
21.08.2019 04:00:00 18,9 3,9 8 4 10 6 W 1016,1 20 0 0,0
21.08.2019 03:00:00 21,1 3,8 7 4 13 7 E 1015,4 12 0 0,0
21.08.2019 02:00:00 21,1 2,9 6 3 19 10 E 1015,7 20 0 -
21.08.2019 01:00:00 23,6 1,9 6 3 18 10 S 1015,7 20 0 0,0
21.08.2019 00:00:00 25,3 2,1 5 3 14 8 E 1015,0 20 0 0,0
20.08.2019 23:00:00 27,4 2,5 3 1 21 11 E 1014,6 20 0 0,0
20.08.2019 22:00:00 28,9 2,9 19 10 26 14 N 1013,8 20 0 0,0
20.08.2019 21:00:00 30,3 2,5 18 10 23 12 NNE 1013,4 20 54 0,0
20.08.2019 20:00:00 32,2 1,3 11 6 24 13 NNE 1013,0 20 60 -
20.08.2019 19:00:00 32,8 2,7 12 6 29 16 N 1012,9 20 60 0,0
20.08.2019 18:00:00 32,9 3,8 19 10 32 18 E 1012,9 20 60 0,0
20.08.2019 17:00:00 33,2 4,8 20 11 34 18 ESE 1013,1 20 60 0,0
20.08.2019 16:00:00 31,8 6,1 13 7 33 18 ENE 1014,0 20 60 0,0
20.08.2019 15:00:00 32,3 6,5 16 9 39 21 ENE 1014,1 13 60 0,0
20.08.2019 14:00:00 30,6 8,4 8 5 16 9 SSW 1015,0 20 60 -
20.08.2019 13:00:00 27,4 8,3 5 3 12 6 ESE 1015,9 20 60 0,0
20.08.2019 12:00:00 23,6 8,4 5 3 12 7 SSW 1016,9 20 60 0,0
20.08.2019 11:00:00 21,2 9,2 4 2 9 5 ESE 1016,9 20 60 0,0
20.08.2019 10:00:00 18,4 9,7 3 2 7 4 SW 1017,1 17 60 0,0
20.08.2019 09:00:00 16,0 8,5 4 2 9 5 SW 1017,2 20 51 0,0
20.08.2019 08:00:00 14,7 8,1 8 4 14 7 WSW 1017,2 12 0 -
20.08.2019 07:00:00 15,3 7,8 6 4 11 6 W 1016,8 20 0 0,0
20.08.2019 06:00:00 15,7 6,7 8 5 14 8 WSW 1016,5 20 0 0,0
20.08.2019 05:00:00 16,5 5,8 9 5 14 7 WSW 1016,4 20 0 0,0
20.08.2019 04:00:00 17,2 5,1 8 4 21 11 WNW 1016,4 20 0 0,0
20.08.2019 03:00:00 17,7 4,3 9 5 15 8 W 1016,7 20 0 0,0
20.08.2019 02:00:00 18,8 3,4 12 6 26 14 WSW 1016,8 20 0 -
20.08.2019 01:00:00 20,0 4,5 16 9 23 13 WSW 1016,6 20 0 0,0
20.08.2019 00:00:00 21,2 6,2 12 7 33 18 SW 1016,1 20 0 0,0
19.08.2019 23:00:00 22,8 6,5 29 16 48 26 WNW 1015,1 20 0 0,0
19.08.2019 22:00:00 25,6 3,6 23 12 39 21 W 1013,9 20 0 0,0
19.08.2019 21:00:00 28,5 -3,6 19 11 28 15 W 1013,2 20 44 0,0
19.08.2019 20:00:00 30,1 -2,5 18 10 38 20 W 1012,9 20 59 -
19.08.2019 19:00:00 31,1 -2,7 24 13 37 20 WSW 1012,9 20 60 0,0
19.08.2019 18:00:00 32,0 -1,0 20 11 40 22 WSW 1012,8 20 60 0,0
19.08.2019 17:00:00 31,5 0,9 15 8 36 19 WSW 1013,2 20 60 0,0
19.08.2019 16:00:00 31,1 -1,7 23 12 36 20 W 1013,8 20 60 0,0
19.08.2019 15:00:00 30,7 -3,3 18 10 32 17 WSW 1014,3 20 60 0,0
19.08.2019 14:00:00 29,8 -0,5 19 11 31 17 WSW 1014,6 20 60 -
19.08.2019 13:00:00 27,9 2,9 17 9 27 14 SW 1015,1 20 60 0,0
19.08.2019 12:00:00 26,0 8,0 16 8 22 12 SSW 1015,3 20 60 0,0
19.08.2019 11:00:00 23,0 11,1 10 5 19 10 SW 1015,5 20 60 0,0
19.08.2019 10:00:00 19,6 12,1 6 4 10 5 SSW 1015,8 20 60 0,0
19.08.2019 09:00:00 17,3 12,2 7 4 13 7 SW 1016,2 20 53 0,0
19.08.2019 08:00:00 16,3 12,1 10 6 16 9 WSW 1016,5 20 0 -

tt = temperature
td = dewpoint
ff = wind speed
fx = gusts
dd = wind direction
ppp = reduced air pressure
vv = visibility
sd = sunshine duration
rr = precipitation

Next stations